Погода в Василевичах

Россия / Смоленская область     54°29′48″N   31°13′18″E
темп.,
°C
ветер,
м/с
пор.,
м/с
влажн.,
%
обл.,
%
осадки,
мм/ч
давл.,
гПа
погр.,
м
11 мая, вт
вт1100:00+7вюв34735 0.0 102745
03:00+6вюв337628 0.0 102736
06:00+6в227973 0.0 102735
09:00+12в3562100 0.0 1026354
12:00+15в46476 0.0 1025866
15:00+18всв464614 0.0 10241033
18:00+18в466253 0.0 1023803
21:00+12в47815 0.0 1023109
12 мая, ср
ср1200:00+11вюв411924 0.0 1023210
03:00+10юв399723 0.0 1023237
06:00+8юв410935 0.0 1024302
09:00+11юв68690 0.0 1025761
12:00+14вюв45585 0.0 10231227
15:00+16в455394 0.0 10211773
18:00+14ссв2367100 0.0 101854
21:00+9вюв3594100 1.1 1016256
13 мая, чт
чт1300:00+8юв3895100 3.8 1016413
03:00+6в389728 3.8 1015185
06:00+8в61395100 0.2 1013666
09:00+10юв7127942 0.4 10131183
12:00+11ююв8107538 0.4 10131189
15:00+12ююв686687 0.9 10131249
18:00+13юв57705 0.3 10121154
21:00+10юв41180100 0.3 1013387
14 мая, пт
пт1400:00+8юв4119098 0.0 1013287
03:00+9юв51381100 0.0 1012380
06:00+10юв61383100 0.1 1012406
09:00+10вюв61390100 0.9 1011412
12:00+14юв6118327 0.1 1010613
15:00+19ююв587155 1.1 10091278
18:00+18ююв477880 1.1 1007864
21:00+14ююв2391100 1.3 100727
15 мая, сб
сб1500:00+12ю349541 0.3 100664
03:00+11ююв339669 0.8 100540
06:00+11ю4899100 1.7 1006239
09:00+13ююз479397 3.4 1005422
12:00+15юз798338 1.0 1007881
15:00+16юз696925 1.4 10071449
18:00+16юз687513 0.3 10071006
21:00+11юз389229 0.3 1008159